Sign in with
Sign up | Sign in
Your question

[ATI] Card glitches during games, ATI VPU Recovery kicks in...

Last response: in Graphics & Displays
Share
March 3, 2010 2:19:46 AM

I've been having this issue since I upgraded to a Radeon 5770. While playing certain games, each of my displays will go black with faint vertical lines running through them just long enough to royally screw up my game. I can alt-tab out to a ATI VPU Recovery notice that tells me it's halted my system from a serious crash... how nice.

My thoughts were initially that the GPU was overheating but I played the game w/ GPU-Z running and this doesn't appear to be the case any longer. The only strange thing happening is that GPU-Z reports GPU Load at 0 after some time of playing the game and doesn't seem to pick back up until I exit the game. Log attached:

Spoiler
Date , GPU Core Clock [MHz] , GPU Memory Clock [MHz] , GPU Temperature [°C] , Fan Speed [%] , GPU Load [%] , Fan Speed [RPM] , VDDC Current % OCP [%] , VDDC [V] ,

2010-03-02 18:48:31 , 400.0 , 1200.0 , 54.0 , 37 , 0 , 1428 , 10.9 , 1.0000 ,

2010-03-02 18:48:32 , 400.0 , 1200.0 , 53.0 , 37 , 9 , 1433 , 10.9 , 1.0000 ,

2010-03-02 18:48:33 , 850.0 , 1200.0 , 58.0 , 39 , 0 , 1462 , 25.0 , 1.0000 ,

2010-03-02 18:48:34 , 850.0 , 1200.0 , 58.0 , 39 , 0 , 1508 , 26.6 , 1.0000 ,

2010-03-02 18:48:35 , 850.0 , 1200.0 , 59.0 , 39 , 0 , 1546 , 28.1 , 1.0000 ,

2010-03-02 18:48:36 , 850.0 , 1200.0 , 60.0 , 39 , 0 , 1554 , 29.7 , 1.0000 ,

2010-03-02 18:48:37 , 850.0 , 1200.0 , 61.0 , 40 , 0 , 1580 , 29.7 , 1.0000 ,

2010-03-02 18:48:38 , 850.0 , 1200.0 , 61.0 , 40 , 76 , 1601 , 29.7 , 1.0000 ,

2010-03-02 18:48:39 , 850.0 , 1200.0 , 61.0 , 40 , 87 , 1604 , 29.7 , 1.0000 ,

2010-03-02 18:48:41 , 850.0 , 1200.0 , 62.0 , 40 , 89 , 1605 , 29.7 , 1.0000 ,

2010-03-02 18:48:42 , 850.0 , 1200.0 , 62.0 , 41 , 97 , 1606 , 29.7 , 1.0000 ,

2010-03-02 18:48:42 , 850.0 , 1200.0 , 62.0 , 41 , 98 , 1647 , 29.7 , 1.0000 ,

2010-03-02 18:48:43 , 850.0 , 1200.0 , 62.0 , 41 , 99 , 1652 , 29.7 , 1.0000 ,

2010-03-02 18:48:45 , 850.0 , 1200.0 , 63.0 , 41 , 98 , 1653 , 29.7 , 1.0000 ,

2010-03-02 18:48:46 , 850.0 , 1200.0 , 63.0 , 41 , 98 , 1653 , 29.7 , 1.0000 ,

2010-03-02 18:48:47 , 850.0 , 1200.0 , 63.0 , 41 , 98 , 1694 , 29.7 , 1.0000 ,

2010-03-02 18:48:48 , 850.0 , 1200.0 , 63.0 , 41 , 98 , 1701 , 29.7 , 1.0000 ,

2010-03-02 18:48:49 , 850.0 , 1200.0 , 63.0 , 41 , 98 , 1701 , 29.7 , 1.0000 ,

2010-03-02 18:48:49 , 850.0 , 1200.0 , 64.0 , 41 , 98 , 1702 , 29.7 , 1.0000 ,

2010-03-02 18:48:50 , 850.0 , 1200.0 , 63.0 , 41 , 98 , 1701 , 29.7 , 1.0000 ,

2010-03-02 18:48:52 , 850.0 , 1200.0 , 64.0 , 41 , 99 , 1701 , 29.7 , 1.0000 ,

2010-03-02 18:48:53 , 850.0 , 1200.0 , 64.0 , 43 , 98 , 1787 , 29.7 , 1.0000 ,

2010-03-02 18:48:53 , 850.0 , 1200.0 , 64.0 , 43 , 98 , 1797 , 29.7 , 1.0000 ,

2010-03-02 18:48:55 , 850.0 , 1200.0 , 64.0 , 43 , 98 , 1798 , 29.7 , 1.0000 ,

2010-03-02 18:48:55 , 850.0 , 1200.0 , 64.0 , 43 , 98 , 1798 , 29.7 , 1.0000 ,

2010-03-02 18:48:56 , 850.0 , 1200.0 , 64.0 , 43 , 98 , 1799 , 29.7 , 1.0000 ,

2010-03-02 18:48:57 , 850.0 , 1200.0 , 65.0 , 43 , 98 , 1799 , 29.7 , 1.0000 ,

2010-03-02 18:48:59 , 850.0 , 1200.0 , 65.0 , 44 , 98 , 1810 , 29.7 , 1.0000 ,

2010-03-02 18:48:59 , 850.0 , 1200.0 , 65.0 , 44 , 98 , 1843 , 29.7 , 1.0000 ,

2010-03-02 18:49:00 , 850.0 , 1200.0 , 65.0 , 44 , 98 , 1847 , 28.1 , 1.0000 ,

2010-03-02 18:49:02 , 850.0 , 1200.0 , 65.0 , 44 , 98 , 1847 , 29.7 , 1.0000 ,

2010-03-02 18:49:03 , 850.0 , 1200.0 , 65.0 , 44 , 98 , 1847 , 29.7 , 1.0000 ,

2010-03-02 18:49:03 , 850.0 , 1200.0 , 65.0 , 44 , 99 , 1846 , 29.7 , 1.0000 ,

2010-03-02 18:49:04 , 850.0 , 1200.0 , 65.0 , 44 , 98 , 1846 , 29.7 , 1.0000 ,

2010-03-02 18:49:05 , 850.0 , 1200.0 , 65.0 , 44 , 99 , 1845 , 29.7 , 1.0000 ,

2010-03-02 18:49:07 , 850.0 , 1200.0 , 65.0 , 44 , 99 , 1845 , 29.7 , 1.0000 ,

2010-03-02 18:49:08 , 850.0 , 1200.0 , 66.0 , 44 , 98 , 1846 , 29.7 , 1.0000 ,

2010-03-02 18:49:09 , 850.0 , 1200.0 , 65.0 , 44 , 98 , 1867 , 29.7 , 1.0000 ,

2010-03-02 18:49:10 , 850.0 , 1200.0 , 66.0 , 44 , 98 , 1890 , 29.7 , 1.0000 ,

2010-03-02 18:49:11 , 850.0 , 1200.0 , 66.0 , 44 , 98 , 1889 , 29.7 , 1.0000 ,

2010-03-02 18:49:11 , 850.0 , 1200.0 , 66.0 , 44 , 99 , 1891 , 29.7 , 1.0000 ,

2010-03-02 18:49:13 , 850.0 , 1200.0 , 66.0 , 44 , 98 , 1891 , 29.7 , 1.0000 ,

2010-03-02 18:49:14 , 850.0 , 1200.0 , 66.0 , 44 , 99 , 1891 , 29.7 , 1.0000 ,

2010-03-02 18:49:15 , 850.0 , 1200.0 , 66.0 , 44 , 99 , 1892 , 29.7 , 1.0000 ,

2010-03-02 18:49:16 , 850.0 , 1200.0 , 66.0 , 44 , 98 , 1890 , 29.7 , 1.0000 ,

2010-03-02 18:49:17 , 850.0 , 1200.0 , 66.0 , 44 , 98 , 1891 , 29.7 , 1.0000 ,

2010-03-02 18:49:18 , 850.0 , 1200.0 , 67.0 , 44 , 98 , 1890 , 29.7 , 1.0000 ,

2010-03-02 18:49:19 , 850.0 , 1200.0 , 67.0 , 44 , 98 , 1890 , 29.7 , 1.0000 ,

2010-03-02 18:49:20 , 850.0 , 1200.0 , 67.0 , 44 , 98 , 1892 , 29.7 , 1.0000 ,

2010-03-02 18:49:21 , 850.0 , 1200.0 , 67.0 , 44 , 98 , 1894 , 29.7 , 1.0000 ,

2010-03-02 18:49:22 , 850.0 , 1200.0 , 67.0 , 44 , 99 , 1893 , 29.7 , 1.0000 ,

2010-03-02 18:49:23 , 850.0 , 1200.0 , 67.0 , 44 , 99 , 1895 , 29.7 , 1.0000 ,

2010-03-02 18:49:23 , 850.0 , 1200.0 , 67.0 , 44 , 99 , 1895 , 29.7 , 1.0000 ,

2010-03-02 18:49:25 , 850.0 , 1200.0 , 67.0 , 45 , 99 , 1930 , 29.7 , 1.0000 ,

2010-03-02 18:49:26 , 850.0 , 1200.0 , 67.0 , 45 , 99 , 1938 , 29.7 , 1.0000 ,

2010-03-02 18:49:26 , 850.0 , 1200.0 , 67.0 , 45 , 99 , 1938 , 29.7 , 1.0000 ,

2010-03-02 18:49:28 , 850.0 , 1200.0 , 67.0 , 45 , 99 , 1938 , 29.7 , 1.0000 ,

2010-03-02 18:49:28 , 850.0 , 1200.0 , 67.0 , 45 , 98 , 1938 , 29.7 , 1.0000 ,

2010-03-02 18:49:30 , 850.0 , 1200.0 , 67.0 , 45 , 99 , 1937 , 29.7 , 1.0000 ,

2010-03-02 18:49:31 , 850.0 , 1200.0 , 67.0 , 45 , 99 , 1938 , 29.7 , 1.0000 ,

2010-03-02 18:49:32 , 850.0 , 1200.0 , 67.0 , 45 , 99 , 1939 , 29.7 , 1.0000 ,

2010-03-02 18:49:32 , 850.0 , 1200.0 , 67.0 , 45 , 99 , 1939 , 29.7 , 1.0000 ,

2010-03-02 18:49:33 , 850.0 , 1200.0 , 67.0 , 45 , 98 , 1939 , 29.7 , 1.0000 ,

2010-03-02 18:49:34 , 850.0 , 1200.0 , 67.0 , 45 , 99 , 1939 , 29.7 , 1.0000 ,

2010-03-02 18:49:35 , 850.0 , 1200.0 , 67.0 , 45 , 99 , 1938 , 29.7 , 1.0000 ,

2010-03-02 18:49:37 , 850.0 , 1200.0 , 67.0 , 45 , 99 , 1937 , 29.7 , 1.0000 ,

2010-03-02 18:49:38 , 850.0 , 1200.0 , 67.0 , 45 , 99 , 1938 , 29.7 , 1.0000 ,

2010-03-02 18:49:38 , 850.0 , 1200.0 , 68.0 , 45 , 99 , 1938 , 29.7 , 1.0000 ,

2010-03-02 18:49:40 , 850.0 , 1200.0 , 67.0 , 45 , 99 , 1939 , 29.7 , 1.0000 ,

2010-03-02 18:49:41 , 850.0 , 1200.0 , 68.0 , 45 , 99 , 1938 , 29.7 , 1.0000 ,

2010-03-02 18:49:41 , 850.0 , 1200.0 , 68.0 , 45 , 99 , 1938 , 29.7 , 1.0000 ,

2010-03-02 18:49:43 , 850.0 , 1200.0 , 68.0 , 45 , 99 , 1939 , 29.7 , 1.0000 ,

2010-03-02 18:49:44 , 850.0 , 1200.0 , 68.0 , 45 , 99 , 1939 , 29.7 , 1.0000 ,

2010-03-02 18:49:44 , 850.0 , 1200.0 , 68.0 , 45 , 99 , 1938 , 29.7 , 1.0000 ,

2010-03-02 18:49:46 , 850.0 , 1200.0 , 68.0 , 45 , 99 , 1939 , 29.7 , 1.0000 ,

2010-03-02 18:49:47 , 850.0 , 1200.0 , 68.0 , 45 , 99 , 1939 , 29.7 , 1.0000 ,

2010-03-02 18:49:48 , 850.0 , 1200.0 , 68.0 , 45 , 99 , 1938 , 29.7 , 1.0000 ,

2010-03-02 18:49:49 , 850.0 , 1200.0 , 68.0 , 46 , 99 , 1980 , 29.7 , 1.0000 ,

2010-03-02 18:49:50 , 850.0 , 1200.0 , 68.0 , 46 , 98 , 1986 , 29.7 , 1.0000 ,

2010-03-02 18:49:51 , 850.0 , 1200.0 , 68.0 , 46 , 98 , 1985 , 29.7 , 1.0000 ,

2010-03-02 18:49:52 , 850.0 , 1200.0 , 68.0 , 46 , 98 , 1986 , 29.7 , 1.0000 ,

2010-03-02 18:49:53 , 850.0 , 1200.0 , 68.0 , 46 , 98 , 1985 , 29.7 , 1.0000 ,

2010-03-02 18:49:54 , 850.0 , 1200.0 , 68.0 , 46 , 98 , 1987 , 29.7 , 1.0000 ,

2010-03-02 18:49:55 , 850.0 , 1200.0 , 68.0 , 46 , 98 , 1986 , 29.7 , 1.0000 ,

2010-03-02 18:49:56 , 850.0 , 1200.0 , 68.0 , 46 , 98 , 1986 , 29.7 , 1.0000 ,

2010-03-02 18:49:57 , 850.0 , 1200.0 , 68.0 , 46 , 98 , 1986 , 29.7 , 1.0000 ,

2010-03-02 18:49:58 , 850.0 , 1200.0 , 68.0 , 46 , 98 , 1986 , 29.7 , 1.0000 ,

2010-03-02 18:49:59 , 850.0 , 1200.0 , 68.0 , 46 , 98 , 1986 , 29.7 , 1.0000 ,

2010-03-02 18:50:00 , 850.0 , 1200.0 , 69.0 , 46 , 98 , 1986 , 29.7 , 1.0000 ,

2010-03-02 18:50:01 , 850.0 , 1200.0 , 68.0 , 46 , 98 , 1985 , 29.7 , 1.0000 ,

2010-03-02 18:50:02 , 850.0 , 1200.0 , 68.0 , 46 , 98 , 1987 , 29.7 , 1.0000 ,

2010-03-02 18:50:02 , 850.0 , 1200.0 , 68.0 , 46 , 98 , 1986 , 29.7 , 1.0000 ,

2010-03-02 18:50:04 , 850.0 , 1200.0 , 68.0 , 46 , 99 , 1986 , 29.7 , 1.0000 ,

2010-03-02 18:50:05 , 850.0 , 1200.0 , 68.0 , 46 , 99 , 1987 , 29.7 , 1.0000 ,

2010-03-02 18:50:06 , 850.0 , 1200.0 , 68.0 , 46 , 99 , 1987 , 29.7 , 1.0000 ,

2010-03-02 18:50:07 , 850.0 , 1200.0 , 69.0 , 46 , 99 , 1987 , 29.7 , 1.0000 ,

2010-03-02 18:50:08 , 850.0 , 1200.0 , 69.0 , 46 , 99 , 1987 , 29.7 , 1.0000 ,

2010-03-02 18:50:09 , 850.0 , 1200.0 , 69.0 , 46 , 99 , 1988 , 29.7 , 1.0000 ,

2010-03-02 18:50:10 , 850.0 , 1200.0 , 69.0 , 46 , 99 , 1987 , 29.7 , 1.0000 ,

2010-03-02 18:50:11 , 850.0 , 1200.0 , 69.0 , 46 , 99 , 1987 , 29.7 , 1.0000 ,

2010-03-02 18:50:12 , 850.0 , 1200.0 , 68.0 , 46 , 98 , 1988 , 29.7 , 1.0000 ,

2010-03-02 18:50:13 , 850.0 , 1200.0 , 69.0 , 46 , 98 , 1987 , 29.7 , 1.0000 ,

2010-03-02 18:50:14 , 850.0 , 1200.0 , 68.0 , 46 , 99 , 1987 , 29.7 , 1.0000 ,

2010-03-02 18:50:14 , 850.0 , 1200.0 , 69.0 , 46 , 98 , 1987 , 29.7 , 1.0000 ,

2010-03-02 18:50:16 , 850.0 , 1200.0 , 69.0 , 46 , 98 , 1987 , 29.7 , 1.0000 ,

2010-03-02 18:50:17 , 850.0 , 1200.0 , 69.0 , 47 , 98 , 1997 , 29.7 , 1.0000 ,

2010-03-02 18:50:18 , 850.0 , 1200.0 , 69.0 , 47 , 98 , 2073 , 29.7 , 1.0000 ,

2010-03-02 18:50:19 , 850.0 , 1200.0 , 69.0 , 47 , 98 , 2080 , 29.7 , 1.0000 ,

2010-03-02 18:50:20 , 850.0 , 1200.0 , 69.0 , 47 , 98 , 2081 , 29.7 , 1.0000 ,

2010-03-02 18:50:21 , 850.0 , 1200.0 , 69.0 , 47 , 98 , 2082 , 29.7 , 1.0000 ,

2010-03-02 18:50:22 , 850.0 , 1200.0 , 69.0 , 47 , 99 , 2081 , 29.7 , 1.0000 ,

2010-03-02 18:50:23 , 850.0 , 1200.0 , 69.0 , 47 , 98 , 2081 , 29.7 , 1.0000 ,

2010-03-02 18:50:24 , 850.0 , 1200.0 , 69.0 , 47 , 99 , 2081 , 29.7 , 1.0000 ,

2010-03-02 18:50:25 , 850.0 , 1200.0 , 69.0 , 47 , 99 , 2082 , 29.7 , 1.0000 ,

2010-03-02 18:50:26 , 850.0 , 1200.0 , 69.0 , 47 , 98 , 2081 , 29.7 , 1.0000 ,

2010-03-02 18:50:26 , 850.0 , 1200.0 , 69.0 , 47 , 98 , 2081 , 29.7 , 1.0000 ,

2010-03-02 18:50:28 , 850.0 , 1200.0 , 69.0 , 47 , 98 , 2082 , 29.7 , 1.0000 ,

2010-03-02 18:50:29 , 850.0 , 1200.0 , 69.0 , 47 , 99 , 2082 , 29.7 , 1.0000 ,

2010-03-02 18:50:29 , 850.0 , 1200.0 , 69.0 , 47 , 99 , 2082 , 29.7 , 1.0000 ,

2010-03-02 18:50:31 , 850.0 , 1200.0 , 69.0 , 47 , 99 , 2081 , 29.7 , 1.0000 ,

2010-03-02 18:50:32 , 850.0 , 1200.0 , 69.0 , 47 , 99 , 2082 , 29.7 , 1.0000 ,

2010-03-02 18:50:33 , 850.0 , 1200.0 , 69.0 , 47 , 99 , 2082 , 29.7 , 1.0000 ,

2010-03-02 18:50:34 , 850.0 , 1200.0 , 69.0 , 47 , 99 , 2081 , 29.7 , 1.0000 ,

2010-03-02 18:50:35 , 850.0 , 1200.0 , 69.0 , 47 , 98 , 2081 , 29.7 , 1.0000 ,

2010-03-02 18:50:36 , 850.0 , 1200.0 , 69.0 , 47 , 98 , 2082 , 29.7 , 1.0000 ,

2010-03-02 18:50:37 , 850.0 , 1200.0 , 69.0 , 47 , 98 , 2082 , 29.7 , 1.0000 ,

2010-03-02 18:50:38 , 850.0 , 1200.0 , 69.0 , 47 , 99 , 2081 , 29.7 , 1.0000 ,

2010-03-02 18:50:39 , 850.0 , 1200.0 , 69.0 , 47 , 99 , 2081 , 29.7 , 1.0000 ,

2010-03-02 18:50:40 , 850.0 , 1200.0 , 69.0 , 47 , 99 , 2082 , 29.7 , 1.0000 ,

2010-03-02 18:50:41 , 850.0 , 1200.0 , 69.0 , 47 , 99 , 2082 , 29.7 , 1.0000 ,

2010-03-02 18:50:42 , 850.0 , 1200.0 , 69.0 , 47 , 99 , 2082 , 29.7 , 1.0000 ,

2010-03-02 18:50:43 , 850.0 , 1200.0 , 69.0 , 47 , 99 , 2083 , 29.7 , 1.0000 ,

2010-03-02 18:50:44 , 850.0 , 1200.0 , 69.0 , 47 , 99 , 2082 , 29.7 , 1.0000 ,

2010-03-02 18:50:45 , 850.0 , 1200.0 , 69.0 , 47 , 99 , 2082 , 29.7 , 1.0000 ,

2010-03-02 18:50:46 , 850.0 , 1200.0 , 69.0 , 47 , 99 , 2082 , 29.7 , 1.0000 ,

2010-03-02 18:50:46 , 850.0 , 1200.0 , 69.0 , 47 , 99 , 2083 , 29.7 , 1.0000 ,

2010-03-02 18:50:48 , 850.0 , 1200.0 , 69.0 , 47 , 99 , 2082 , 29.7 , 1.0000 ,

2010-03-02 18:50:49 , 850.0 , 1200.0 , 69.0 , 47 , 99 , 2082 , 29.7 , 1.0000 ,

2010-03-02 18:50:50 , 850.0 , 1200.0 , 69.0 , 47 , 98 , 2082 , 29.7 , 1.0000 ,

2010-03-02 18:50:51 , 850.0 , 1200.0 , 69.0 , 47 , 98 , 2083 , 29.7 , 1.0000 ,

2010-03-02 18:50:52 , 850.0 , 1200.0 , 69.0 , 47 , 98 , 2083 , 29.7 , 1.0000 ,

2010-03-02 18:50:53 , 850.0 , 1200.0 , 69.0 , 47 , 98 , 2084 , 29.7 , 1.0000 ,

2010-03-02 18:50:54 , 850.0 , 1200.0 , 69.0 , 47 , 98 , 2083 , 29.7 , 1.0000 ,

2010-03-02 18:50:55 , 850.0 , 1200.0 , 69.0 , 47 , 98 , 2083 , 29.7 , 1.0000 ,

2010-03-02 18:50:56 , 850.0 , 1200.0 , 69.0 , 47 , 98 , 2083 , 29.7 , 1.0000 ,

2010-03-02 18:50:57 , 850.0 , 1200.0 , 69.0 , 47 , 98 , 2084 , 29.7 , 1.0000 ,

2010-03-02 18:50:58 , 850.0 , 1200.0 , 69.0 , 47 , 98 , 2084 , 29.7 , 1.0000 ,

2010-03-02 18:50:59 , 850.0 , 1200.0 , 69.0 , 47 , 98 , 2084 , 29.7 , 1.0000 ,

2010-03-02 18:51:00 , 850.0 , 1200.0 , 69.0 , 47 , 98 , 2084 , 29.7 , 1.0000 ,

2010-03-02 18:51:01 , 850.0 , 1200.0 , 69.0 , 47 , 98 , 2084 , 29.7 , 1.0000 ,

2010-03-02 18:51:02 , 850.0 , 1200.0 , 69.0 , 47 , 98 , 2084 , 29.7 , 1.0000 ,

2010-03-02 18:51:03 , 850.0 , 1200.0 , 69.0 , 47 , 99 , 2084 , 29.7 , 1.0000 ,

2010-03-02 18:51:04 , 850.0 , 1200.0 , 69.0 , 47 , 99 , 2083 , 29.7 , 1.0000 ,

2010-03-02 18:51:05 , 850.0 , 1200.0 , 69.0 , 47 , 99 , 2083 , 29.7 , 1.0000 ,

2010-03-02 18:51:05 , 850.0 , 1200.0 , 69.0 , 47 , 99 , 2084 , 29.7 , 1.0000 ,

2010-03-02 18:51:07 , 850.0 , 1200.0 , 69.0 , 47 , 99 , 2084 , 29.7 , 1.0000 ,

2010-03-02 18:51:07 , 850.0 , 1200.0 , 69.0 , 47 , 99 , 2084 , 29.7 , 1.0000 ,

2010-03-02 18:51:09 , 850.0 , 1200.0 , 69.0 , 47 , 99 , 2084 , 29.7 , 1.0000 ,

2010-03-02 18:51:10 , 850.0 , 1200.0 , 69.0 , 47 , 99 , 2084 , 29.7 , 1.0000 ,

2010-03-02 18:51:11 , 850.0 , 1200.0 , 69.0 , 47 , 99 , 2084 , 29.7 , 1.0000 ,

2010-03-02 18:51:12 , 850.0 , 1200.0 , 69.0 , 47 , 99 , 2084 , 29.7 , 1.0000 ,

2010-03-02 18:51:13 , 850.0 , 1200.0 , 69.0 , 47 , 98 , 2083 , 29.7 , 1.0000 ,

2010-03-02 18:51:14 , 850.0 , 1200.0 , 69.0 , 47 , 98 , 2084 , 29.7 , 1.0000 ,

2010-03-02 18:51:15 , 850.0 , 1200.0 , 69.0 , 47 , 98 , 2084 , 29.7 , 1.0000 ,

2010-03-02 18:51:16 , 850.0 , 1200.0 , 69.0 , 47 , 98 , 2084 , 29.7 , 1.0000 ,

2010-03-02 18:51:17 , 850.0 , 1200.0 , 69.0 , 47 , 98 , 2086 , 29.7 , 1.0000 ,

2010-03-02 18:51:17 , 850.0 , 1200.0 , 69.0 , 47 , 98 , 2085 , 29.7 , 1.0000 ,

2010-03-02 18:51:18 , 850.0 , 1200.0 , 69.0 , 47 , 98 , 2085 , 29.7 , 1.0000 ,

2010-03-02 18:51:19 , 850.0 , 1200.0 , 69.0 , 47 , 98 , 2084 , 29.7 , 1.0000 ,

2010-03-02 18:51:21 , 850.0 , 1200.0 , 69.0 , 47 , 98 , 2085 , 29.7 , 1.0000 ,

2010-03-02 18:51:22 , 850.0 , 1200.0 , 69.0 , 47 , 99 , 2085 , 29.7 , 1.0000 ,

2010-03-02 18:51:23 , 850.0 , 1200.0 , 69.0 , 47 , 99 , 2084 , 29.7 , 1.0000 ,

2010-03-02 18:51:23 , 850.0 , 1200.0 , 69.0 , 47 , 99 , 2085 , 29.7 , 1.0000 ,

2010-03-02 18:51:25 , 850.0 , 1200.0 , 69.0 , 47 , 99 , 2086 , 29.7 , 1.0000 ,

2010-03-02 18:51:26 , 850.0 , 1200.0 , 69.0 , 47 , 99 , 2085 , 29.7 , 1.0000 ,

2010-03-02 18:51:27 , 850.0 , 1200.0 , 69.0 , 47 , 99 , 2085 , 31.3 , 1.0000 ,

2010-03-02 18:51:28 , 850.0 , 1200.0 , 69.0 , 47 , 99 , 2086 , 29.7 , 1.0000 ,

2010-03-02 18:51:29 , 850.0 , 1200.0 , 69.0 , 47 , 99 , 2085 , 29.7 , 1.0000 ,

2010-03-02 18:51:30 , 850.0 , 1200.0 , 69.0 , 47 , 99 , 2085 , 29.7 , 1.0000 ,

2010-03-02 18:51:31 , 850.0 , 1200.0 , 69.0 , 47 , 98 , 2086 , 29.7 , 1.0000 ,

2010-03-02 18:51:32 , 850.0 , 1200.0 , 69.0 , 47 , 98 , 2086 , 29.7 , 1.0000 ,

2010-03-02 18:51:33 , 850.0 , 1200.0 , 69.0 , 47 , 98 , 2087 , 29.7 , 1.0000 ,

2010-03-02 18:51:34 , 850.0 , 1200.0 , 69.0 , 47 , 98 , 2086 , 29.7 , 1.0000 ,

2010-03-02 18:51:35 , 850.0 , 1200.0 , 69.0 , 47 , 98 , 2085 , 29.7 , 1.0000 ,

2010-03-02 18:51:35 , 850.0 , 1200.0 , 69.0 , 47 , 98 , 2086 , 31.3 , 1.0000 ,

2010-03-02 18:51:37 , 850.0 , 1200.0 , 69.0 , 47 , 98 , 2086 , 29.7 , 1.0000 ,

2010-03-02 18:51:38 , 850.0 , 1200.0 , 69.0 , 47 , 99 , 2087 , 29.7 , 1.0000 ,

2010-03-02 18:51:39 , 850.0 , 1200.0 , 69.0 , 47 , 99 , 2085 , 29.7 , 1.0000 ,

2010-03-02 18:51:40 , 850.0 , 1200.0 , 69.0 , 47 , 99 , 2087 , 31.3 , 1.0000 ,

2010-03-02 18:51:41 , 850.0 , 1200.0 , 69.0 , 47 , 99 , 2086 , 29.7 , 1.0000 ,

2010-03-02 18:51:42 , 850.0 , 1200.0 , 69.0 , 47 , 99 , 2086 , 29.7 , 1.0000 ,

2010-03-02 18:51:43 , 850.0 , 1200.0 , 69.0 , 47 , 99 , 2087 , 29.7 , 1.0000 ,

2010-03-02 18:51:44 , 850.0 , 1200.0 , 69.0 , 47 , 99 , 2086 , 29.7 , 1.0000 ,

2010-03-02 18:51:45 , 850.0 , 1200.0 , 70.0 , 47 , 98 , 2087 , 29.7 , 1.0000 ,

2010-03-02 18:51:46 , 850.0 , 1200.0 , 69.0 , 47 , 98 , 2086 , 29.7 , 1.0000 ,

2010-03-02 18:51:47 , 850.0 , 1200.0 , 69.0 , 47 , 98 , 2086 , 29.7 , 1.0000 ,

2010-03-02 18:51:48 , 850.0 , 1200.0 , 70.0 , 47 , 98 , 2087 , 29.7 , 1.0000 ,

2010-03-02 18:51:49 , 850.0 , 1200.0 , 70.0 , 47 , 98 , 2086 , 29.7 , 1.0000 ,

2010-03-02 18:51:50 , 850.0 , 1200.0 , 69.0 , 47 , 99 , 2086 , 29.7 , 1.0000 ,

2010-03-02 18:51:51 , 850.0 , 1200.0 , 69.0 , 47 , 99 , 2086 , 29.7 , 1.0000 ,

2010-03-02 18:51:52 , 850.0 , 1200.0 , 70.0 , 47 , 99 , 2087 , 29.7 , 1.0000 ,

2010-03-02 18:51:53 , 850.0 , 1200.0 , 69.0 , 47 , 99 , 2087 , 31.3 , 1.0000 ,

2010-03-02 18:51:54 , 850.0 , 1200.0 , 69.0 , 47 , 99 , 2087 , 29.7 , 1.0000 ,

2010-03-02 18:51:55 , 850.0 , 1200.0 , 70.0 , 47 , 98 , 2088 , 29.7 , 1.0000 ,

2010-03-02 18:51:56 , 850.0 , 1200.0 , 69.0 , 47 , 98 , 2088 , 29.7 , 1.0000 ,

2010-03-02 18:51:57 , 850.0 , 1200.0 , 70.0 , 47 , 99 , 2087 , 29.7 , 1.0000 ,

2010-03-02 18:51:58 , 850.0 , 1200.0 , 69.0 , 47 , 98 , 2087 , 29.7 , 1.0000 ,

2010-03-02 18:51:59 , 850.0 , 1200.0 , 70.0 , 47 , 98 , 2087 , 31.3 , 1.0000 ,

2010-03-02 18:52:00 , 850.0 , 1200.0 , 70.0 , 47 , 99 , 2088 , 29.7 , 1.0000 ,

2010-03-02 18:52:01 , 850.0 , 1200.0 , 70.0 , 47 , 99 , 2087 , 29.7 , 1.0000 ,

2010-03-02 18:52:02 , 850.0 , 1200.0 , 70.0 , 47 , 98 , 2088 , 31.3 , 1.0000 ,

2010-03-02 18:52:02 , 850.0 , 1200.0 , 70.0 , 47 , 98 , 2088 , 29.7 , 1.0000 ,

2010-03-02 18:52:04 , 850.0 , 1200.0 , 70.0 , 47 , 98 , 2088 , 29.7 , 1.0000 ,

2010-03-02 18:52:05 , 850.0 , 1200.0 , 70.0 , 47 , 98 , 2088 , 29.7 , 1.0000 ,

2010-03-02 18:52:06 , 850.0 , 1200.0 , 70.0 , 47 , 98 , 2088 , 29.7 , 1.0000 ,

2010-03-02 18:52:07 , 850.0 , 1200.0 , 70.0 , 47 , 99 , 2087 , 29.7 , 1.0000 ,

2010-03-02 18:52:08 , 850.0 , 1200.0 , 70.0 , 47 , 99 , 2089 , 29.7 , 1.0000 ,

2010-03-02 18:52:08 , 850.0 , 1200.0 , 70.0 , 48 , 99 , 2125 , 29.7 , 1.0000 ,

2010-03-02 18:52:09 , 850.0 , 1200.0 , 70.0 , 48 , 99 , 2134 , 29.7 , 1.0000 ,

2010-03-02 18:52:11 , 850.0 , 1200.0 , 70.0 , 48 , 99 , 2135 , 29.7 , 1.0000 ,

2010-03-02 18:52:11 , 850.0 , 1200.0 , 70.0 , 48 , 99 , 2135 , 29.7 , 1.0000 ,

2010-03-02 18:52:13 , 850.0 , 1200.0 , 70.0 , 48 , 99 , 2135 , 29.7 , 1.0000 ,

2010-03-02 18:52:14 , 850.0 , 1200.0 , 70.0 , 48 , 99 , 2135 , 29.7 , 1.0000 ,

2010-03-02 18:52:14 , 850.0 , 1200.0 , 70.0 , 48 , 98 , 2134 , 29.7 , 1.0000 ,

2010-03-02 18:52:16 , 850.0 , 1200.0 , 70.0 , 48 , 98 , 2135 , 29.7 , 1.0000 ,

2010-03-02 18:52:17 , 850.0 , 1200.0 , 70.0 , 48 , 98 , 2134 , 29.7 , 1.0000 ,

2010-03-02 18:52:18 , 850.0 , 1200.0 , 70.0 , 48 , 98 , 2135 , 29.7 , 1.0000 ,

2010-03-02 18:52:19 , 850.0 , 1200.0 , 70.0 , 48 , 98 , 2134 , 29.7 , 1.0000 ,

2010-03-02 18:52:20 , 850.0 , 1200.0 , 70.0 , 48 , 98 , 2134 , 31.3 , 1.0000 ,

2010-03-02 18:52:20 , 850.0 , 1200.0 , 65.0 , 48 , 96 , 2155 , 15.6 , 1.0000 ,

2010-03-02 18:52:21 , 850.0 , 1200.0 , 65.0 , 48 , 76 , 2160 , 15.6 , 1.0000 ,

2010-03-02 18:52:22 , 850.0 , 1200.0 , 64.0 , 48 , 63 , 2161 , 15.6 , 1.0000 ,

2010-03-02 18:52:23 , 850.0 , 1200.0 , 64.0 , 48 , 44 , 2161 , 15.6 , 1.0000 ,

2010-03-02 18:52:24 , 850.0 , 1200.0 , 63.0 , 45 , 31 , 2050 , 15.6 , 1.0000 ,

2010-03-02 18:52:25 , 400.0 , 1200.0 , 61.0 , 45 , 0 , 1984 , 10.9 , 1.0000 ,

2010-03-02 18:52:27 , 400.0 , 1200.0 , 61.0 , 45 , 9 , 1982 , 10.9 , 1.0000 ,

2010-03-02 18:52:28 , 850.0 , 1200.0 , 67.0 , 45 , 0 , 1950 , 29.7 , 1.0000 ,

2010-03-02 18:52:29 , 850.0 , 1200.0 , 68.0 , 46 , 0 , 1981 , 29.7 , 1.0000 ,

2010-03-02 18:52:30 , 850.0 , 1200.0 , 68.0 , 46 , 0 , 1995 , 29.7 , 1.0000 ,

2010-03-02 18:52:31 , 850.0 , 1200.0 , 68.0 , 46 , 0 , 1995 , 29.7 , 1.0000 ,

2010-03-02 18:52:32 , 850.0 , 1200.0 , 64.0 , 46 , 0 , 2016 , 17.2 , 1.0000 ,

2010-03-02 18:52:33 , 850.0 , 1200.0 , 63.0 , 46 , 76 , 2020 , 15.6 , 1.0000 ,

2010-03-02 18:52:34 , 850.0 , 1200.0 , 63.0 , 46 , 65 , 2020 , 15.6 , 1.0000 ,

2010-03-02 18:52:35 , 850.0 , 1200.0 , 62.0 , 46 , 45 , 2021 , 15.6 , 1.0000 ,

2010-03-02 18:52:36 , 850.0 , 1200.0 , 62.0 , 46 , 32 , 2020 , 15.6 , 1.0000 ,

2010-03-02 18:52:37 , 850.0 , 1200.0 , 66.0 , 46 , 0 , 2012 , 29.7 , 1.0000 ,

2010-03-02 18:52:38 , 850.0 , 1200.0 , 67.0 , 46 , 0 , 1996 , 29.7 , 1.0000 ,

2010-03-02 18:52:39 , 850.0 , 1200.0 , 67.0 , 46 , 0 , 1996 , 29.7 , 1.0000 ,

2010-03-02 18:52:40 , 850.0 , 1200.0 , 68.0 , 46 , 0 , 1996 , 29.7 , 1.0000 ,

2010-03-02 18:52:41 , 850.0 , 1200.0 , 68.0 , 46 , 0 , 1997 , 29.7 , 1.0000 ,

2010-03-02 18:52:42 , 850.0 , 1200.0 , 68.0 , 46 , 0 , 1997 , 29.7 , 1.0000 ,

2010-03-02 18:52:43 , 850.0 , 1200.0 , 68.0 , 46 , 98 , 1996 , 29.7 , 1.0000 ,

2010-03-02 18:52:44 , 850.0 , 1200.0 , 68.0 , 46 , 98 , 1996 , 29.7 , 1.0000 ,

2010-03-02 18:52:45 , 850.0 , 1200.0 , 68.0 , 46 , 98 , 1996 , 29.7 , 1.0000 ,

2010-03-02 18:52:46 , 850.0 , 1200.0 , 69.0 , 46 , 98 , 1997 , 29.7 , 1.0000 ,

2010-03-02 18:52:47 , 850.0 , 1200.0 , 68.0 , 46 , 98 , 1997 , 29.7 , 1.0000 ,

2010-03-02 18:52:48 , 850.0 , 1200.0 , 69.0 , 46 , 98 , 1997 , 29.7 , 1.0000 ,

2010-03-02 18:52:49 , 850.0 , 1200.0 , 69.0 , 46 , 99 , 1997 , 29.7 , 1.0000 ,

2010-03-02 18:52:50 , 850.0 , 1200.0 , 69.0 , 46 , 99 , 1997 , 29.7 , 1.0000 ,

2010-03-02 18:52:51 , 850.0 , 1200.0 , 69.0 , 47 , 99 , 1998 , 29.7 , 1.0000 ,

2010-03-02 18:52:52 , 850.0 , 1200.0 , 69.0 , 47 , 99 , 2083 , 29.7 , 1.0000 ,

2010-03-02 18:52:53 , 850.0 , 1200.0 , 69.0 , 47 , 99 , 2090 , 29.7 , 1.0000 ,

2010-03-02 18:52:54 , 850.0 , 1200.0 , 69.0 , 47 , 99 , 2091 , 29.7 , 1.0000 ,

2010-03-02 18:52:55 , 850.0 , 1200.0 , 69.0 , 47 , 99 , 2091 , 29.7 , 1.0000 ,

2010-03-02 18:52:56 , 850.0 , 1200.0 , 69.0 , 47 , 99 , 2091 , 29.7 , 1.0000 ,

2010-03-02 18:52:57 , 850.0 , 1200.0 , 69.0 , 47 , 98 , 2091 , 29.7 , 1.0000 ,

2010-03-02 18:52:58 , 850.0 , 1200.0 , 69.0 , 47 , 99 , 2090 , 29.7 , 1.0000 ,

2010-03-02 18:52:59 , 850.0 , 1200.0 , 67.0 , 47 , 93 , 2102 , 25.0 , 1.0000 ,

2010-03-02 18:53:00 , 850.0 , 1200.0 , 67.0 , 47 , 88 , 2103 , 23.4 , 1.0000 ,

2010-03-02 18:53:01 , 850.0 , 1200.0 , 67.0 , 47 , 80 , 2103 , 25.0 , 1.0000 ,

2010-03-02 18:53:02 , 850.0 , 1200.0 , 66.0 , 47 , 74 , 2103 , 23.4 , 1.0000 ,

2010-03-02 18:53:03 , 850.0 , 1200.0 , 67.0 , 47 , 66 , 2104 , 25.0 , 1.0000 ,

2010-03-02 18:53:04 , 850.0 , 1200.0 , 66.0 , 47 , 60 , 2104 , 21.9 , 1.0000 ,

2010-03-02 18:53:05 , 850.0 , 1200.0 , 66.0 , 47 , 57 , 2103 , 21.9 , 1.0000 ,

2010-03-02 18:53:06 , 850.0 , 1200.0 , 66.0 , 47 , 56 , 2103 , 21.9 , 1.0000 ,

2010-03-02 18:53:07 , 850.0 , 1200.0 , 66.0 , 47 , 56 , 2104 , 21.9 , 1.0000 ,

2010-03-02 18:53:08 , 850.0 , 1200.0 , 66.0 , 47 , 56 , 2103 , 23.4 , 1.0000 ,

2010-03-02 18:53:09 , 850.0 , 1200.0 , 66.0 , 47 , 56 , 2103 , 23.4 , 1.0000 ,

2010-03-02 18:53:10 , 850.0 , 1200.0 , 66.0 , 47 , 56 , 2104 , 23.4 , 1.0000 ,

2010-03-02 18:53:11 , 850.0 , 1200.0 , 66.0 , 47 , 56 , 2104 , 21.9 , 1.0000 ,

2010-03-02 18:53:12 , 850.0 , 1200.0 , 65.0 , 47 , 56 , 2104 , 21.9 , 1.0000 ,

2010-03-02 18:53:13 , 850.0 , 1200.0 , 66.0 , 47 , 56 , 2103 , 23.4 , 1.0000 ,

2010-03-02 18:53:14 , 850.0 , 1200.0 , 65.0 , 47 , 56 , 2105 , 21.9 , 1.0000 ,

2010-03-02 18:53:15 , 850.0 , 1200.0 , 65.0 , 47 , 56 , 2104 , 23.4 , 1.0000 ,

2010-03-02 18:53:16 , 850.0 , 1200.0 , 65.0 , 47 , 56 , 2104 , 23.4 , 1.0000 ,

2010-03-02 18:53:17 , 850.0 , 1200.0 , 66.0 , 47 , 56 , 2103 , 25.0 , 1.0000 ,

2010-03-02 18:53:18 , 850.0 , 1200.0 , 65.0 , 47 , 56 , 2104 , 23.4 , 1.0000 ,

2010-03-02 18:53:19 , 850.0 , 1200.0 , 65.0 , 47 , 56 , 2104 , 21.9 , 1.0000 ,

2010-03-02 18:53:20 , 850.0 , 1200.0 , 64.0 , 47 , 55 , 2110 , 18.8 , 1.0000 ,

2010-03-02 18:53:21 , 850.0 , 1200.0 , 64.0 , 47 , 49 , 2109 , 18.8 , 1.0000 ,

2010-03-02 18:53:22 , 850.0 , 1200.0 , 64.0 , 47 , 46 , 2109 , 20.3 , 1.0000 ,

2010-03-02 18:53:23 , 850.0 , 1200.0 , 64.0 , 47 , 42 , 2109 , 20.3 , 1.0000 ,

2010-03-02 18:53:24 , 850.0 , 1200.0 , 64.0 , 47 , 39 , 2109 , 21.9 , 1.0000 ,

2010-03-02 18:53:25 , 850.0 , 1200.0 , 64.0 , 44 , 34 , 1948 , 20.3 , 1.0000 ,

2010-03-02 18:53:26 , 850.0 , 1200.0 , 64.0 , 44 , 32 , 1922 , 20.3 , 1.0000 ,

2010-03-02 18:53:27 , 850.0 , 1200.0 , 63.0 , 44 , 33 , 1922 , 18.8 , 1.0000 ,

2010-03-02 18:53:28 , 850.0 , 1200.0 , 62.0 , 44 , 33 , 1928 , 15.6 , 1.0000 ,

2010-03-02 18:53:29 , 850.0 , 1200.0 , 65.0 , 44 , 33 , 1914 , 23.4 , 1.0000 ,

2010-03-02 18:53:30 , 850.0 , 1200.0 , 66.0 , 44 , 36 , 1911 , 26.6 , 1.0000 ,

2010-03-02 18:53:31 , 850.0 , 1200.0 , 66.0 , 44 , 44 , 1912 , 26.6 , 1.0000 ,

2010-03-02 18:53:32 , 850.0 , 1200.0 , 66.0 , 45 , 49 , 1949 , 28.1 , 1.0000 ,

2010-03-02 18:53:33 , 850.0 , 1200.0 , 66.0 , 45 , 57 , 1958 , 26.6 , 1.0000 ,

2010-03-02 18:53:34 , 850.0 , 1200.0 , 67.0 , 45 , 64 , 1955 , 29.7 , 1.0000 ,

2010-03-02 18:53:35 , 850.0 , 1200.0 , 67.0 , 45 , 73 , 1954 , 29.7 , 1.0000 ,

2010-03-02 18:53:36 , 850.0 , 1200.0 , 67.0 , 45 , 76 , 1954 , 31.3 , 1.0000 ,

2010-03-02 18:53:37 , 850.0 , 1200.0 , 67.0 , 45 , 79 , 1955 , 28.1 , 1.0000 ,

2010-03-02 18:53:38 , 850.0 , 1200.0 , 67.0 , 45 , 80 , 1955 , 29.7 , 1.0000 ,

2010-03-02 18:53:39 , 850.0 , 1200.0 , 67.0 , 46 , 81 , 1955 , 28.1 , 1.0000 ,

2010-03-02 18:53:40 , 850.0 , 1200.0 , 67.0 , 46 , 82 , 1998 , 28.1 , 1.0000 ,

2010-03-02 18:53:41 , 850.0 , 1200.0 , 67.0 , 46 , 82 , 2003 , 28.1 , 1.0000 ,

2010-03-02 18:53:42 , 850.0 , 1200.0 , 67.0 , 46 , 81 , 2002 , 28.1 , 1.0000 ,

2010-03-02 18:53:43 , 850.0 , 1200.0 , 67.0 , 46 , 80 , 2004 , 28.1 , 1.0000 ,

2010-03-02 18:53:44 , 850.0 , 1200.0 , 67.0 , 46 , 80 , 2004 , 28.1 , 1.0000 ,

2010-03-02 18:53:45 , 850.0 , 1200.0 , 67.0 , 46 , 79 , 2004 , 28.1 , 1.0000 ,

2010-03-02 18:53:46 , 850.0 , 1200.0 , 68.0 , 46 , 79 , 2004 , 28.1 , 1.0000 ,

2010-03-02 18:53:47 , 850.0 , 1200.0 , 68.0 , 46 , 79 , 2004 , 28.1 , 1.0000 ,

2010-03-02 18:53:48 , 850.0 , 1200.0 , 68.0 , 46 , 78 , 2004 , 26.6 , 1.0000 ,

2010-03-02 18:53:49 , 850.0 , 1200.0 , 66.0 , 46 , 74 , 2014 , 21.9 , 1.0000 ,

2010-03-02 18:53:50 , 850.0 , 1200.0 , 65.0 , 46 , 68 , 2016 , 20.3 , 1.0000 ,

2010-03-02 18:53:51 , 850.0 , 1200.0 , 65.0 , 46 , 60 , 2018 , 20.3 , 1.0000 ,

2010-03-02 18:53:52 , 850.0 , 1200.0 , 65.0 , 46 , 54 , 2017 , 18.8 , 1.0000 ,

2010-03-02 18:53:53 , 850.0 , 1200.0 , 65.0 , 46 , 45 , 2016 , 21.9 , 1.0000 ,

2010-03-02 18:53:54 , 850.0 , 1200.0 , 65.0 , 46 , 39 , 2017 , 20.3 , 1.0000 ,

2010-03-02 18:53:55 , 850.0 , 1200.0 , 64.0 , 46 , 34 , 2016 , 20.3 , 1.0000 ,

2010-03-02 18:53:56 , 850.0 , 1200.0 , 64.0 , 46 , 34 , 2016 , 20.3 , 1.0000 ,

2010-03-02 18:53:57 , 850.0 , 1200.0 , 64.0 , 46 , 34 , 2017 , 21.9 , 1.0000 ,

2010-03-02 18:53:58 , 850.0 , 1200.0 , 64.0 , 46 , 33 , 2017 , 21.9 , 1.0000 ,

2010-03-02 18:53:59 , 850.0 , 1200.0 , 64.0 , 46 , 34 , 2016 , 18.8 , 1.0000 ,

2010-03-02 18:54:00 , 850.0 , 1200.0 , 64.0 , 46 , 34 , 2018 , 20.3 , 1.0000 ,

2010-03-02 18:54:01 , 850.0 , 1200.0 , 64.0 , 46 , 34 , 2016 , 20.3 , 1.0000 ,

2010-03-02 18:54:02 , 850.0 , 1200.0 , 64.0 , 46 , 34 , 2016 , 18.8 , 1.0000 ,

2010-03-02 18:54:03 , 850.0 , 1200.0 , 64.0 , 46 , 33 , 2016 , 20.3 , 1.0000 ,

2010-03-02 18:54:04 , 850.0 , 1200.0 , 63.0 , 46 , 33 , 2017 , 18.8 , 1.0000 ,

2010-03-02 18:54:05 , 850.0 , 1200.0 , 64.0 , 46 , 33 , 2016 , 20.3 , 1.0000 ,

2010-03-02 18:54:06 , 850.0 , 1200.0 , 63.0 , 46 , 33 , 2016 , 21.9 , 1.0000 ,

2010-03-02 18:54:07 , 850.0 , 1200.0 , 63.0 , 46 , 33 , 2017 , 21.9 , 1.0000 ,

2010-03-02 18:54:08 , 850.0 , 1200.0 , 63.0 , 46 , 33 , 2017 , 18.8 , 1.0000 ,

2010-03-02 18:54:09 , 850.0 , 1200.0 , 63.0 , 46 , 33 , 2017 , 20.3 , 1.0000 ,

2010-03-02 18:54:10 , 850.0 , 1200.0 , 63.0 , 46 , 33 , 2017 , 20.3 , 1.0000 ,

2010-03-02 18:54:11 , 850.0 , 1200.0 , 63.0 , 46 , 33 , 2017 , 18.8 , 1.0000 ,

2010-03-02 18:54:12 , 850.0 , 1200.0 , 63.0 , 46 , 33 , 2017 , 20.3 , 1.0000 ,

2010-03-02 18:54:13 , 850.0 , 1200.0 , 63.0 , 46 , 34 , 2018 , 20.3 , 1.0000 ,

2010-03-02 18:54:14 , 850.0 , 1200.0 , 61.0 , 46 , 34 , 2022 , 15.6 , 1.0000 ,

2010-03-02 18:54:15 , 850.0 , 1200.0 , 61.0 , 44 , 27 , 2009 , 15.6 , 1.0000 ,

2010-03-02 18:54:16 , 850.0 , 1200.0 , 63.0 , 44 , 26 , 1888 , 20.3 , 1.0000 ,

2010-03-02 18:54:17 , 850.0 , 1200.0 , 63.0 , 44 , 26 , 1875 , 20.3 , 1.0000 ,

2010-03-02 18:54:18 , 850.0 , 1200.0 , 63.0 , 44 , 26 , 1874 , 18.8 , 1.0000 ,

2010-03-02 18:54:19 , 850.0 , 1200.0 , 61.0 , 44 , 24 , 1880 , 17.2 , 1.0000 ,

2010-03-02 18:54:20 , 850.0 , 1200.0 , 63.0 , 44 , 0 , 1874 , 20.3 , 1.0000 ,

2010-03-02 18:54:21 , 850.0 , 1200.0 , 63.0 , 44 , 0 , 1873 , 21.9 , 1.0000 ,

2010-03-02 18:54:22 , 850.0 , 1200.0 , 61.0 , 44 , 0 , 1876 , 15.6 , 1.0000 ,

2010-03-02 18:54:23 , 850.0 , 1200.0 , 64.0 , 44 , 0 , 1868 , 26.6 , 1.0000 ,

2010-03-02 18:54:24 , 850.0 , 1200.0 , 65.0 , 44 , 0 , 1897 , 25.0 , 1.0000 ,

2010-03-02 18:54:25 , 850.0 , 1200.0 , 65.0 , 44 , 0 , 1912 , 26.6 , 1.0000 ,

2010-03-02 18:54:26 , 850.0 , 1200.0 , 65.0 , 44 , 49 , 1913 , 26.6 , 1.0000 ,

2010-03-02 18:54:27 , 850.0 , 1200.0 , 66.0 , 44 , 57 , 1911 , 26.6 , 1.0000 ,

2010-03-02 18:54:28 , 850.0 , 1200.0 , 66.0 , 44 , 62 , 1911 , 28.1 ,
March 3, 2010 2:51:45 AM

From my experience with the 5870, which does have the same memory and memory clock, I had the same issues as you at stock settings. When I underclocked the memory by 50, it never happened again. Even when I overclocked the core to 900.
m
0
l
March 3, 2010 3:55:38 AM

which program did you use to underclock the settings? I tried AtiTool but the sliders jump back to 13.5 any time I hit Set Clock.

ATI Overdrive doesn't appear to allow me to underclock.

Thanks for the quick reply.
m
0
l
Related resources
March 3, 2010 4:00:36 AM

I managed to get her done w/ MSI Afterburner. I'll give this a shot.
m
0
l
March 3, 2010 4:36:42 AM

PlutoISaPlanet said:
which program did you use to underclock the settings? I tried AtiTool but the sliders jump back to 13.5 any time I hit Set Clock.

ATI Overdrive doesn't appear to allow me to underclock.

Thanks for the quick reply.


I did it through the ATI Overdrive.

And for reference, the issues might not have happened as often to me as you. I would normally take a long hard session before it happened.
m
0
l
March 10, 2010 3:25:58 AM

I can hardly believe it but I haven't had an issue since underclocking the memory by 50! Thanks a million man. I would have updated here sooner but I had a hard time finding the thread.
m
0
l
March 10, 2010 10:09:22 PM

Great to hear :) 
m
0
l
!